GEFSSE_con_cape1000_096.txt.gz
Probability
84 94 100 100 100 100 100 100 100 100 100 100 100 100 100 100 100 100 100 100 100 100 100 100 100 100 100 97 97 97 100 100 97 97 97 100 100 100 97 90 87 77 94
84 90 100 100 100 100 100 100 100 100 100 100 100 100 100 100 100 100 100 100 100 100 100 100 100 100 100 100 100 100 100 100 97 97 97 97 97 100 100 71 87 81 94
94 94 100 100 100 100 100 100 100 100 100 100 100 100 100 100 100 100 100 100 100 100 100 100 100 100 100 100 100 100 100 97 97 97 97 61 71 84 84 71 97 94 97
97 94 97 100 100 100 100 100 100 100 100 100 100 100 100 100 100 100 100 100 100 100 100 100 100 100 100 100 100 100 97 97 97 97 84 45 55 81 81 81 97 100 100
94 100 100 100 100 100 100 100 100 100 100 100 100 100 100 100 100 100 100 100 100 100 100 100 100 100 100 100 100 100 100 100 100 87 39 52 71 97 90 84 87 90 87
97 100 100 100 100 100 100 100 100 100 100 100 100 100 100 100 100 100 100 100 100 100 100 100 100 100 100 100 100 100 100 97 84 35 35 39 74 97 94 84 74 84 84
97 100 100 100 100 100 100 100 100 100 100 100 100 100 100 100 100 100 100 100 100 100 100 100 100 100 100 100 100 100 100 97 71 29 42 39 77 100 94 90 77 81 81
100 100 100 100 100 100 100 100 100 100 100 100 100 100 100 100 100 100 100 100 100 100 100 100 100 100 100 100 100 100 100 97 52 32 48 42 94 97 97 100 97 90 90
100 100 100 100 100 100 100 100 100 100 100 100 100 100 100 100 100 100 100 100 100 100 100 100 100 100 100 97 94 94 97 90 71 58 42 65 94 97 97 97 97 97 90
97 97 100 100 100 100 100 100 100 100 100 100 100 100 100 100 100 100 100 100 100 100 100 100 100 97 97 94 94 97 94 81 71 61 55 84 97 94 97 97 94 87 90
97 97 97 97 100 100 100 100 100 100 100 100 100 100 100 100 97 100 97 100 100 100 100 100 100 97 94 90 84 84 87 74 42 58 68 77 94 97 94 94 94 94 87
94 94 94 97 97 100 100 100 100 100 100 100 97 97 100 97 97 94 97 97 100 100 100 100 100 97 87 84 84 68 71 58 35 68 81 81 87 87 87 84 81 81 84
90 90 90 94 97 97 100 100 100 100 100 100 97 94 94 94 97 94 97 97 97 100 100 100 97 84 65 65 65 48 35 32 48 42 58 68 71 90 84 74 71 68 71
87 87 87 87 94 94 97 100 100 100 100 97 97 97 97 97 94 97 97 97 97 97 100 97 97 77 61 48 35 26 19 48 42 55 87 68 74 81 81 74 71 77 77
84 81 77 84 87 90 97 97 97 97 100 100 100 97 97 97 97 94 94 97 94 97 100 100 81 81 71 58 39 23 32 32 39 48 71 77 68 84 71 77 74 71 74
68 68 68 77 81 87 90 94 94 94 100 94 94 94 97 97 94 90 90 94 97 94 90 94 77 94 77 74 52 32 32 39 61 52 65 71 58 68 68 65 74 68 65
68 68 71 71 71 74 81 81 81 87 87 94 94 94 94 94 94 94 90 90 94 97 97 97 94 84 87 77 71 45 52 45 42 58 65 71 65 55 48 48 52 52 52
58 61 65 58 71 74 71 84 81 87 87 87 87 84 74 81 87 87 84 87 87 97 97 97 97 94 87 74 65 55 42 52 52 45 45 58 61 55 39 32 32 29 32
55 55 55 61 61 65 71 77 77 87 87 81 77 71 68 74 68 84 84 87 87 87 94 87 90 87 77 58 48 45 42 39 35 29 32 29 42 42 32 29 19 23 23
29 39 45 52 58 55 71 74 77 68 68 68 61 65 65 65 61 58 65 74 74 77 90 87 84 81 71 61 23 23 29 29 35 26 23 19 26 26 26 19 19 10 10
23 23 29 35 42 52 55 61 65 61 71 65 58 45 48 42 58 55 52 55 55 71 74 71 74 65 58 42 29 16 19 13 10 13 10 10 6 10 10 10 6 6 10
19 16 19 16 23 35 39 48 61 52 55 61 45 48 45 39 32 32 48 52 55 61 52 61 55 52 42 26 29 13 10 3 6 3 6 6 0 3 3 0 3 6 3
16 16 16 19 19 19 23 35 45 55 45 29 35 42 35 35 29 35 35 48 48 52 52 52 39 39 32 29 26 26 6 3 3 3 3 0 0 0 0 0 0 0 0
13 16 16 19 19 16 19 29 32 39 35 26 29 29 29 29 29 29 35 35 45 45 45 35 32 32 29 23 23 19 19 6 3 0 0 0 0 0 0 0 0 0 0
10 13 16 19 19 13 13 16 23 23 26 26 23 29 29 29 26 26 29 32 32 32 29 23 23 26 23 23 16 16 10 6 3 0 0 0 0 0 0 0 0 0 0
10 13 13 16 16 10 10 13 16 16 16 16 19 19 19 26 16 16 19 26 23 23 29 23 16 13 16 16 13 6 3 0 0 0 0 0 0 0 0 0 0 0 0

GEFSSE_con_cape1000_102.txt.gz
Probability
77 100 100 100 100 100 100 100 100 100 100 100 100 100 100 100 100 100 100 100 100 100 100 100 100 97 100 97 100 97 97 100 100 100 100 97 97 97 90 97 97 90 100
84 100 100 100 100 100 100 100 100 100 100 100 100 100 100 100 100 100 100 100 100 100 100 100 100 100 100 100 97 97 97 100 100 97 97 97 94 90 94 94 97 90 97
90 100 100 100 100 100 100 100 100 100 100 100 100 100 100 100 100 100 100 100 100 100 100 100 100 100 100 100 97 100 97 97 100 97 94 52 71 84 94 97 100 97 97
94 97 100 100 100 100 100 100 100 100 100 100 100 100 100 100 100 100 100 100 100 100 100 100 100 100 100 100 100 100 97 97 97 94 87 45 42 77 84 90 97 94 87
90 97 100 100 100 100 100 100 100 100 100 100 100 100 100 100 100 100 100 100 100 100 100 100 100 100 100 100 97 97 97 94 94 94 84 71 55 81 81 77 77 87 90
90 97 100 100 100 100 100 100 100 100 100 100 100 100 100 100 100 100 100 100 100 100 100 100 100 100 100 100 97 97 94 90 90 94 84 81 65 87 77 71 65 68 81
94 94 100 100 100 100 100 100 100 100 100 100 100 100 100 100 100 100 100 100 100 100 100 100 100 100 100 100 100 100 97 90 90 90 81 84 81 87 74 68 61 68 74
90 94 100 100 100 100 100 100 100 100 100 100 100 100 100 100 100 100 100 100 100 100 100 100 100 100 100 100 100 100 100 97 90 84 71 77 94 94 81 74 61 68 68
90 97 97 100 100 100 100 100 100 100 100 100 100 100 100 100 97 97 97 100 100 100 100 100 100 100 100 100 97 97 100 100 100 84 77 87 97 100 87 81 77 71 68
84 87 94 97 100 100 100 100 100 100 100 100 100 100 97 97 97 97 97 97 97 100 97 100 100 100 97 94 94 94 97 97 84 71 77 87 100 100 94 90 77 71 71
97 90 87 94 94 94 100 100 100 100 100 100 100 97 97 97 97 97 97 97 97 97 94 97 100 97 97 94 94 94 94 74 32 71 68 97 100 97 90 90 87 84 81
97 97 94 90 94 87 94 100 100 100 97 100 97 97 97 94 94 94 97 97 97 97 97 94 97 97 94 94 94 94 84 77 61 65 68 100 100 97 87 84 77 71 68
84 84 87 90 90 100 100 100 100 100 97 97 94 94 94 94 94 94 94 94 94 94 94 97 100 90 87 97 100 77 61 52 45 65 81 100 100 94 87 81 74 65 71
71 74 81 90 90 97 97 100 100 97 97 97 97 97 94 90 87 90 90 94 90 94 90 94 94 87 81 81 84 74 52 61 52 77 84 94 100 94 87 77 74 71 65
71 74 81 81 90 97 97 97 100 97 94 97 97 97 97 90 84 90 87 84 87 87 87 90 90 77 81 77 77 71 65 58 68 58 74 94 90 94 90 84 81 68 71
65 81 81 84 94 94 97 97 97 100 94 97 90 94 94 94 94 97 87 87 90 87 81 84 84 84 84 87 84 81 68 58 74 68 52 77 84 94 90 81 84 77 68
65 74 84 90 90 94 94 94 94 94 94 97 94 90 90 97 97 90 87 87 84 81 74 74 81 77 87 84 81 71 71 68 74 74 68 61 65 74 74 77 68 61 58
58 61 68 71 81 87 87 94 94 94 94 94 97 97 94 94 94 97 87 81 81 74 68 74 68 74 74 65 65 65 61 61 65 65 58 52 52 26 45 58 52 55 52
45 58 61 68 68 74 81 87 90 94 94 94 94 87 87 87 84 81 87 81 71 71 68 58 58 61 58 48 45 52 58 58 52 48 52 48 45 35 29 32 42 42 35
45 52 55 58 68 65 74 84 87 90 90 87 87 87 81 77 81 81 81 77 74 68 68 61 58 55 45 45 32 32 29 32 35 35 32 32 29 32 29 19 26 26 29
42 48 52 55 55 61 71 74 77 81 81 77 77 71 71 65 68 71 74 77 74 65 58 55 52 42 39 29 26 16 13 13 19 23 26 23 16 19 16 10 6 6 13
29 35 39 35 39 48 55 71 77 77 71 71 71 61 58 55 58 45 61 58 71 58 55 45 45 45 32 32 23 6 3 6 6 3 16 16 0 0 0 0 0 0 0
16 29 23 29 35 39 48 61 71 74 71 65 61 58 52 45 42 39 42 45 48 48 52 42 39 35 26 23 19 13 6 3 6 3 0 0 0 0 0 0 0 0 0
13 19 26 23 26 29 32 39 55 65 55 48 45 39 45 35 35 35 29 32 35 35 39 35 35 32 29 26 19 19 19 10 3 0 0 0 0 0 0 0 0 0 0
13 16 19 26 19 19 23 23 26 32 35 29 29 39 39 32 32 26 29 29 29 29 32 32 32 32 29 26 19 13 10 3 0 0 0 0 0 0 0 0 0 0 0
10 13 13 13 16 16 16 16 19 19 23 26 26 19 23 26 23 23 19 19 23 29 29 29 29 26 26 26 13 6 10 0 0 0 0 0 0 0 0 0 0 0 0

GEFSSE_con_cape1000_108.txt.gz
Probability
97 100 100 100 100 100 97 100 100 100 100 100 100 100 100 100 100 100 100 100 100 100 100 100 100 100 100 100 100 100 97 97 97 100 100 100 100 100 100 100 97 87 100
97 100 100 100 100 100 100 100 100 100 100 100 100 100 100 100 100 100 100 100 100 100 100 100 100 100 100 100 100 100 97 97 100 97 97 100 100 100 100 100 94 90 97
97 100 100 100 100 100 100 100 100 100 100 100 100 100 100 100 100 100 100 100 100 100 100 100 100 100 100 100 100 100 100 100 100 100 94 84 97 97 97 97 97 97 97
97 97 100 100 100 100 100 100 100 100 100 100 100 100 100 100 100 100 100 100 100 100 100 100 100 100 100 100 100 100 100 100 100 94 42 68 90 97 97 97 97 97 94
94 97 97 100 100 100 100 100 100 100 100 100 100 100 100 100 100 100 100 100 100 100 100 100 100 100 100 100 100 100 100 100 94 81 39 42 71 100 100 97 97 97 90
94 97 97 100 100 100 100 100 100 100 100 100 100 100 100 100 100 100 100 100 100 100 100 100 100 100 100 100 97 97 97 90 84 61 42 45 68 100 100 100 90 90 90
90 94 97 100 100 100 100 100 100 100 100 100 100 100 100 100 100 100 100 100 100 100 100 100 100 100 100 97 94 94 94 90 61 42 35 45 71 100 100 97 94 90 84
84 97 97 100 100 100 100 100 100 100 100 100 100 100 100 100 100 100 100 100 100 100 100 100 100 100 97 94 94 94 94 87 71 55 48 35 84 100 97 97 94 87 81
81 84 90 94 100 100 100 100 100 100 100 100 100 100 100 100 100 100 100 100 100 100 100 100 100 100 100 97 97 97 97 87 39 42 32 39 90 97 94 87 90 84 81
77 77 84 87 97 100 100 100 100 100 100 100 100 100 100 100 100 100 100 100 100 100 100 100 100 100 100 94 90 97 97 77 35 23 23 52 90 97 97 94 84 87 84
65 65 77 81 81 87 100 100 100 97 97 97 100 100 94 94 94 97 97 97 97 100 100 100 100 100 100 90 94 97 84 45 16 16 19 77 94 100 100 100 94 84 77
52 58 68 77 81 84 87 90 94 94 94 94 94 94 94 94 94 94 97 97 97 97 97 97 97 100 97 81 77 90 65 32 10 16 26 90 87 97 100 100 94 84 74
52 55 61 68 77 77 77 81 81 90 90 90 90 90 87 77 74 84 81 87 87 90 84 87 94 84 71 61 42 39 42 23 10 10 35 90 87 94 94 97 94 84 74
45 45 52 55 61 74 71 68 77 87 87 90 90 87 77 74 68 65 74 84 84 81 77 81 68 65 61 42 23 19 10 10 3 3 26 90 97 97 94 94 90 87 87
26 32 29 42 52 58 58 71 71 74 84 77 84 81 71 71 58 58 65 71 74 74 61 55 55 52 35 19 16 19 19 6 6 6 23 81 87 94 97 87 77 81 81
19 16 23 23 23 35 52 52 74 74 71 77 77 77 81 68 58 48 55 55 55 45 42 45 52 39 23 19 19 16 13 6 0 6 13 61 81 87 94 94 84 81 74
19 23 19 23 26 26 35 45 61 65 65 65 71 71 68 65 55 55 55 52 42 32 35 32 29 13 19 13 10 10 6 6 3 6 10 19 35 71 74 81 74 74 71
16 19 16 26 23 26 29 39 35 52 45 45 52 45 52 52 55 52 45 42 35 39 29 26 23 16 16 6 6 3 0 6 3 3 3 3 10 26 58 77 71 65 61
13 13 10 10 23 32 29 35 45 35 42 45 42 48 45 42 45 42 42 42 39 45 32 32 26 10 3 6 6 0 0 0 3 3 3 3 3 0 3 23 48 52 52
3 3 3 6 10 19 26 26 32 32 32 29 26 26 35 39 45 39 35 35 29 32 23 16 10 6 6 6 6 0 0 0 0 3 3 0 0 0 0 3 16 26 42
0 0 3 10 6 6 23 26 35 32 32 23 16 26 26 26 35 35 32 35 29 26 19 16 10 6 6 0 0 0 0 0 0 0 0 0 0 0 0 0 3 3 6
6 6 10 10 10 6 10 16 23 26 19 16 13 16 16 16 19 23 23 26 19 19 23 19 10 6 6 0 0 0 0 0 0 0 0 0 0 0 0 0 0 0 3
6 6 6 6 6 10 10 10 13 23 16 10 13 13 13 13 16 16 16 19 19 23 23 23 13 6 3 0 0 0 0 0 0 0 0 0 0 0 0 0 0 0 0
6 6 6 6 6 6 6 10 16 16 13 10 6 10 10 13 13 13 13 13 13 13 13 16 6 6 6 3 0 0 0 0 0 0 0 0 0 0 0 0 0 0 0
6 6 6 6 6 10 10 10 10 6 6 6 6 6 13 13 13 13 13 13 13 10 13 13 10 3 3 6 0 0 0 0 0 0 0 0 0 0 0 0 0 0 0
6 6 3 3 3 3 0 0 0 0 3 3 3 3 3 6 6 6 10 10 10 6 6 6 10 3 3 0 0 0 0 0 0 0 0 0 0 0 0 0 0 0 0

GEFSSE_con_cape1000_114.txt.gz
Probability
87 100 100 100 100 100 100 100 100 100 100 100 100 100 100 100 100 100 100 100 100 100 100 100 100 100 100 100 100 100 100 100 100 100 100 100 97 97 94 94 90 81 94
87 100 100 100 100 100 100 100 100 100 100 100 100 100 100 100 100 100 100 100 100 100 100 100 100 100 100 100 100 100 97 97 100 100 100 100 100 97 97 94 87 87 97
87 100 100 100 100 100 100 100 100 100 100 100 100 100 100 100 100 100 100 100 100 100 100 100 100 100 100 97 97 100 100 100 100 100 100 90 97 97 97 97 97 97 97
94 90 97 100 100 100 100 100 100 100 100 100 100 100 100 100 100 100 100 100 100 100 100 100 100 100 100 97 97 97 97 100 100 97 84 94 94 97 97 94 94 90 97
94 94 97 100 100 100 100 100 100 100 100 100 100 100 100 100 100 100 100 100 100 100 100 100 100 100 100 100 100 100 100 100 97 74 74 87 94 97 97 97 90 94 90
90 97 97 100 100 100 100 100 100 100 100 100 100 100 100 100 100 100 100 100 100 100 100 100 100 100 100 100 100 100 97 97 81 68 74 84 97 97 97 94 94 94 84
94 94 97 100 100 100 100 100 100 100 100 100 100 100 100 100 100 100 100 100 100 100 100 100 100 100 100 100 100 100 97 87 55 68 71 74 90 97 97 97 94 90 90
90 87 94 97 100 100 100 100 100 100 100 100 100 100 100 100 100 100 100 100 100 100 100 100 100 100 100 100 97 97 100 84 71 65 74 68 90 100 97 100 90 87 90
71 81 84 94 94 100 100 100 100 100 100 100 100 100 100 100 100 100 100 100 100 100 100 100 100 100 97 94 90 94 100 90 35 61 58 61 87 100 97 94 90 90 90
65 68 71 74 90 97 100 100 100 100 100 100 100 100 100 100 100 100 100 100 100 100 100 100 100 97 100 97 97 100 94 84 35 45 52 61 94 97 97 97 94 97 90
61 61 61 65 71 74 94 100 100 100 100 100 100 100 97 97 97 97 100 100 100 100 100 100 100 100 97 97 97 100 81 42 16 39 39 58 97 94 94 94 97 90 84
52 52 58 61 65 68 71 81 87 90 94 97 97 94 90 94 94 97 97 97 97 97 94 94 94 97 90 74 74 81 58 48 26 32 42 71 97 97 97 94 94 81 77
45 55 55 58 65 61 68 77 81 81 81 87 87 87 87 84 84 87 87 87 84 90 84 87 90 81 74 68 65 42 39 45 42 32 45 77 90 97 100 97 87 87 77
26 32 35 48 55 55 61 68 77 81 81 81 81 81 77 77 71 71 71 77 81 81 77 81 74 71 74 68 65 48 32 35 35 23 32 84 97 97 97 97 97 87 74
23 16 19 32 32 39 45 52 68 71 77 74 74 74 74 77 61 52 52 52 65 68 74 65 61 55 55 48 45 42 39 23 32 29 29 61 90 94 94 94 94 90 84
10 16 16 19 23 23 32 39 45 52 52 58 55 61 68 61 55 45 45 52 58 55 52 45 42 45 35 32 35 39 32 10 19 23 23 26 74 77 87 90 90 84 81
6 10 10 13 13 16 16 26 29 45 45 42 39 52 52 48 48 42 42 45 48 45 32 45 32 32 29 19 23 26 26 10 13 16 13 23 39 74 84 84 90 81 81
10 6 10 16 6 10 10 13 13 16 23 32 32 32 35 35 35 26 32 32 32 32 29 26 26 29 26 13 10 10 13 10 16 13 10 6 16 35 65 68 68 71 71
3 3 3 3 0 0 6 3 10 10 13 19 16 16 35 29 26 26 26 26 29 29 19 26 19 16 19 13 3 6 10 6 13 6 6 3 3 16 26 45 48 52 48
3 3 0 0 0 0 0 3 10 13 10 6 6 10 10 13 29 23 26 23 26 23 13 13 19 6 6 3 3 3 3 3 0 3 3 3 3 3 10 13 26 26 39
3 3 0 0 0 0 3 3 16 10 10 6 6 10 13 13 13 13 19 13 13 16 13 6 3 6 3 0 0 0 0 0 0 3 3 3 3 3 3 0 0 13 16
3 0 0 0 3 3 3 3 6 3 3 3 3 6 6 6 6 13 13 13 10 13 13 3 3 0 0 0 0 0 0 0 0 0 0 3 3 3 3 0 0 0 0
3 3 3 3 3 3 3 3 6 6 6 3 3 3 3 10 10 10 10 10 6 6 6 0 0 0 0 0 0 0 0 0 0 0 0 0 3 3 3 0 0 0 0
3 3 3 3 3 0 3 6 6 6 6 6 6 3 3 3 3 6 6 6 6 3 6 3 0 0 3 3 0 0 0 0 0 0 0 0 0 3 0 0 0 0 0
3 3 0 0 0 0 0 0 0 0 3 3 3 0 3 3 3 3 3 3 6 6 6 0 0 0 0 3 3 0 0 0 0 0 0 0 0 0 0 0 0 0 0
0 0 0 0 0 0 0 0 0 0 0 0 0 0 0 0 0 3 3 3 0 0 0 0 3 3 0 0 3 3 0 0 0 0 0 0 0 0 0 0 0 0 0

GEFSSE_con_cape1000_120.txt.gz
Probability
68 87 100 100 100 100 100 100 100 100 100 100 100 100 100 100 100 100 100 100 100 100 100 100 100 100 100 100 100 100 100 100 100 100 100 100 100 97 97 87 94 87 97
74 90 100 100 100 100 100 100 100 100 100 100 100 100 100 100 100 100 100 100 100 100 100 100 100 100 100 100 100 100 100 100 100 100 100 100 100 100 94 81 90 94 97
87 100 100 100 100 100 100 100 100 100 100 100 100 100 100 100 100 100 100 100 100 100 100 100 100 100 100 100 100 100 100 100 100 100 97 65 77 94 94 94 94 97 97
90 94 90 100 100 100 100 100 100 100 100 100 100 100 100 100 100 100 100 100 100 100 100 100 100 100 100 100 100 100 100 100 100 100 58 35 48 90 97 97 94 97 94
90 87 100 100 100 100 100 100 100 100 100 100 100 100 100 100 100 100 100 100 100 100 100 100 100 100 100 100 100 100 100 100 90 90 39 32 74 94 97 94 97 94 77
87 90 97 100 100 100 100 100 100 100 100 100 100 100 100 100 100 100 100 100 100 100 100 100 100 100 100 100 100 100 100 90 90 26 32 35 74 97 94 90 87 87 90
84 87 97 100 100 100 100 100 100 100 100 100 100 100 100 100 100 100 100 100 100 100 100 100 100 100 100 100 100 100 94 90 71 29 39 39 81 97 94 94 94 90 77
84 84 97 100 100 100 100 100 100 100 100 100 100 100 100 100 100 100 100 100 100 100 100 100 100 100 100 100 100 97 90 87 65 42 48 42 97 97 94 90 81 84 81
87 87 90 97 100 100 100 100 100 100 97 100 100 100 100 100 100 100 100 100 100 100 100 100 100 100 100 97 97 97 90 87 81 68 52 68 94 100 94 90 81 90 94
87 87 94 87 87 97 97 97 97 97 97 97 97 100 100 100 100 100 100 100 100 100 100 100 97 100 97 97 100 97 97 81 68 61 68 77 97 94 90 94 90 94 90
84 84 87 90 87 84 87 94 97 94 90 94 94 94 100 94 90 97 100 100 100 100 100 97 94 90 94 94 97 97 87 71 65 61 71 97 97 94 94 94 90 94 84
68 71 77 81 81 81 81 90 94 87 90 94 90 87 94 97 94 87 97 100 97 97 97 97 97 87 84 74 84 81 71 65 52 55 84 97 90 97 97 90 90 84 81
65 65 68 71 68 71 81 87 87 90 90 84 87 94 94 94 90 77 84 94 94 94 94 94 97 84 65 52 52 58 52 42 42 42 71 97 94 100 100 94 87 90 84
65 61 61 68 68 68 71 81 84 87 90 94 90 87 94 94 90 87 90 84 90 87 90 94 87 74 71 55 48 42 45 52 48 48 77 94 90 94 97 97 90 90 87
61 58 61 61 65 65 71 77 77 77 81 87 87 97 97 90 97 90 90 90 84 81 84 90 84 77 71 55 58 42 48 45 55 55 77 94 90 94 94 94 94 90 87
55 52 52 65 65 68 68 71 74 71 77 77 77 77 87 90 94 90 87 87 81 81 84 84 84 84 71 74 68 61 65 55 65 68 61 68 74 81 81 87 87 90 74
52 55 52 55 55 65 68 65 61 68 74 71 74 74 71 77 90 87 84 84 84 81 87 84 74 87 74 71 74 65 71 81 74 81 77 77 68 71 77 81 81 77 74
45 48 45 29 39 52 58 61 61 61 68 68 65 65 65 65 74 84 81 81 84 81 77 77 74 74 81 74 71 71 65 77 71 74 65 68 68 65 68 74 77 71 65
39 35 35 29 29 39 55 58 55 55 55 48 55 65 58 61 61 71 81 77 84 77 71 68 68 68 68 68 58 68 58 48 55 45 52 52 61 68 58 52 61 68 58
26 29 23 23 23 29 45 55 52 48 52 48 45 48 58 58 48 52 52 58 58 61 71 71 68 74 71 71 45 35 58 48 48 52 52 48 58 48 48 45 58 58 42
23 19 19 19 23 29 35 39 48 48 42 32 39 39 39 42 45 42 35 42 45 52 42 52 61 61 58 58 52 45 45 42 35 48 45 39 39 42 48 45 45 42 39
23 19 13 13 16 19 29 29 42 32 29 29 32 35 32 35 39 26 39 39 35 39 45 42 45 45 42 48 48 39 23 26 45 26 29 32 35 35 35 29 32 29 29
16 13 6 13 6 10 16 29 26 35 32 35 29 26 19 23 23 29 32 35 35 32 32 39 35 32 39 32 39 45 26 13 10 26 29 29 32 32 29 32 26 29 19
13 13 13 13 13 13 23 16 23 32 26 23 19 16 10 13 16 16 16 23 26 16 19 19 23 32 23 29 35 39 39 32 16 10 23 29 23 29 26 19 19 23 23
16 10 13 13 13 13 16 19 10 13 13 16 10 6 6 6 3 3 6 6 10 13 13 13 19 23 23 23 26 29 29 32 23 26 13 16 23 13 23 26 26 23 23
13 10 10 10 10 10 13 13 10 10 10 6 6 3 3 3 3 3 3 3 3 6 10 6 10 16 19 26 26 23 16 19 19 26 16 19 16 13 16 23 16 16 16

GEFSSE_con_cape1000_126.txt.gz
Probability
90 100 100 100 100 100 100 100 100 100 100 100 100 100 100 100 100 100 100 100 100 100 100 100 100 100 100 100 100 100 100 100 100 100 100 100 100 100 100 100 100 97 100
100 100 100 100 100 100 100 100 100 100 100 100 100 100 100 100 100 100 100 100 100 100 100 100 100 100 100 100 100 100 100 100 100 100 100 100 100 100 100 100 100 90 100
97 100 100 100 100 100 100 100 100 100 100 100 100 100 100 100 100 100 100 100 100 100 100 100 100 100 100 100 100 100 100 100 100 100 100 81 90 100 97 100 100 100 97
97 97 100 100 100 100 100 100 100 100 100 100 100 100 100 100 100 100 100 100 100 100 100 100 100 97 97 100 100 100 97 94 97 97 94 71 77 90 97 97 100 94 90
90 97 100 100 100 100 100 100 100 100 100 100 100 100 100 100 100 100 100 100 100 100 100 100 100 100 100 100 97 90 81 81 90 97 84 84 87 97 90 87 84 84 90
90 97 100 100 100 100 100 100 100 100 100 100 100 100 100 100 100 100 100 100 100 100 100 97 97 97 100 100 97 94 87 90 94 61 61 84 90 100 90 74 81 65 77
90 90 100 100 100 100 100 100 100 100 100 100 100 100 100 100 100 100 100 100 100 100 97 100 97 100 100 97 94 90 90 87 90 65 52 77 87 100 87 77 81 65 61
90 90 97 97 100 100 100 100 100 100 100 100 100 100 100 100 100 100 100 100 100 97 97 94 94 100 94 87 87 94 90 87 90 71 61 77 97 97 90 87 77 68 58
84 90 94 94 94 94 97 97 97 97 97 100 100 100 100 100 100 100 100 100 100 100 100 97 97 97 100 90 90 94 97 97 87 68 65 77 100 100 87 84 77 77 74
87 84 87 94 90 94 90 90 97 97 97 97 97 100 100 100 100 100 100 100 97 94 94 94 94 97 94 97 94 94 94 94 74 55 68 90 100 100 94 87 81 81 74
77 77 81 87 90 87 90 90 97 97 97 94 94 90 97 94 87 97 90 100 94 94 94 97 97 97 97 94 100 100 90 58 45 61 77 100 100 94 90 90 87 81 74
81 81 81 77 74 74 74 90 94 94 94 94 94 90 87 97 94 90 94 97 97 97 97 94 97 97 90 77 90 100 74 48 32 58 87 100 100 100 94 97 87 84 74
77 77 77 74 77 74 81 84 90 87 90 87 90 84 84 81 87 90 87 94 94 90 90 90 94 90 77 71 87 74 68 45 52 55 94 100 100 100 94 97 94 84 81
71 68 68 65 68 68 74 74 81 81 77 81 84 77 77 84 81 90 90 94 90 90 90 90 90 81 74 81 74 77 58 55 48 55 84 94 94 97 97 90 90 87 87
65 61 61 65 68 68 74 74 71 74 71 71 77 77 81 81 84 87 90 94 94 94 90 87 87 84 81 74 74 68 74 61 58 74 77 94 94 90 94 90 90 84 84
61 61 65 61 65 74 68 68 71 71 77 71 74 74 74 77 77 81 81 90 94 94 90 87 87 84 81 84 71 74 71 68 74 84 87 87 90 87 84 84 84 81 87
68 65 61 61 61 55 58 58 65 65 68 68 74 68 65 71 74 77 77 81 87 84 81 90 90 77 81 77 74 65 74 77 90 81 77 81 84 84 84 77 77 77 77
58 58 55 55 52 52 55 55 52 55 65 61 55 65 61 65 61 74 65 68 81 84 84 77 74 81 74 68 71 71 74 77 81 74 74 71 77 65 68 68 71 68 68
55 52 48 48 52 52 52 55 52 48 48 48 45 42 42 45 55 52 55 58 58 74 77 71 74 74 61 65 65 74 74 71 71 55 65 71 71 71 61 55 58 58 65
48 48 39 42 48 58 45 52 52 48 45 39 35 39 39 42 42 52 61 61 55 61 65 71 65 68 65 61 45 45 65 58 58 52 61 58 65 61 58 45 48 48 61
42 42 42 39 52 45 45 42 48 45 32 35 32 39 32 29 32 39 35 58 52 52 48 48 45 52 55 58 55 48 48 48 55 61 58 58 55 58 48 45 35 32 26
32 32 42 42 39 39 39 45 48 42 42 32 29 26 23 23 26 19 42 35 42 45 42 42 48 42 42 48 48 42 23 32 48 39 55 55 45 39 35 32 26 29 23
29 29 26 29 32 32 42 35 29 32 35 32 23 23 19 19 19 23 23 29 29 32 32 39 39 35 32 32 42 29 19 10 16 23 32 39 35 32 29 23 23 26 23
23 16 19 26 23 23 35 35 29 26 16 16 16 16 13 13 16 19 19 19 23 26 32 26 23 29 19 23 32 26 29 19 10 0 16 16 23 19 16 13 13 19 16
13 16 19 23 26 23 26 32 26 16 6 6 6 6 6 10 3 3 10 16 23 23 23 16 16 23 19 23 13 13 13 16 16 6 0 3 13 16 16 16 16 16 13
19 19 23 26 26 23 19 23 16 10 6 6 6 6 3 10 6 10 10 10 10 10 13 10 16 13 16 16 13 16 13 13 6 6 0 0 3 6 16 16 16 16 13

GEFSSE_con_cape1000_132.txt.gz
Probability
90 100 100 100 100 100 100 100 100 100 100 100 100 100 100 100 100 100 100 100 100 100 100 100 100 100 100 100 100 100 100 100 100 100 100 100 100 100 100 97 97 94 97
94 100 100 100 100 100 100 100 100 100 100 100 100 100 100 100 100 100 100 100 100 100 100 100 100 100 100 100 100 100 100 100 100 100 100 100 100 100 97 94 94 100 100
97 100 100 100 100 100 100 100 100 100 100 100 100 100 100 100 100 100 100 100 100 100 100 100 100 100 100 100 100 100 100 100 100 100 97 97 97 100 100 97 100 100 100
100 100 100 100 100 100 100 100 100 100 100 100 100 100 100 100 100 100 100 100 100 100 100 100 100 100 100 100 100 100 100 100 100 97 71 84 94 100 100 97 100 100 97
97 97 100 100 100 100 100 100 100 100 100 100 100 100 100 100 100 100 100 100 100 100 100 100 100 100 100 100 100 100 100 97 100 81 61 58 84 100 100 97 100 94 94
97 97 100 100 100 100 100 100 100 100 100 100 100 100 100 100 100 100 100 100 100 100 100 100 100 100 100 100 97 94 97 100 81 55 52 58 81 97 97 100 97 90 90
94 94 100 100 100 100 100 100 100 100 100 100 100 100 100 100 100 100 100 100 100 100 100 97 100 100 100 100 97 97 97 94 74 32 39 48 74 97 97 94 94 97 97
94 94 97 100 100 100 100 100 100 100 100 100 100 100 100 100 100 100 100 100 100 100 97 100 100 100 97 94 94 97 97 94 71 42 35 55 87 97 100 97 97 97 97
94 90 90 90 90 100 100 100 100 100 100 100 100 100 100 100 100 100 100 100 100 100 100 90 94 97 90 87 94 87 97 97 45 29 39 45 94 97 100 94 97 90 97
84 90 90 90 90 90 94 100 100 97 97 100 100 100 100 100 100 100 100 100 100 100 94 94 94 90 90 94 97 97 97 87 29 26 23 48 97 100 100 100 97 87 90
74 74 84 87 90 87 87 94 97 94 94 97 97 100 100 84 87 94 100 100 100 97 94 94 97 94 94 94 97 97 94 55 13 6 13 68 97 97 100 100 97 94 84
68 68 74 74 77 84 87 81 81 87 81 77 74 74 74 68 68 81 94 100 100 97 94 94 90 87 87 65 55 84 52 39 19 13 19 81 94 100 97 100 97 94 87
58 58 58 68 65 61 65 65 61 68 68 68 68 68 65 58 58 65 71 81 84 90 77 84 81 81 68 52 26 26 26 32 10 6 13 87 90 97 100 100 94 90 87
48 45 45 42 55 48 48 48 42 48 55 45 48 45 42 42 39 52 58 61 65 58 58 61 55 52 42 32 26 23 23 23 10 6 10 81 81 90 94 90 94 90 87
45 48 35 35 35 29 32 35 42 42 42 42 42 42 39 35 32 32 35 35 42 39 39 42 35 39 32 32 35 32 23 26 16 10 23 74 81 84 90 81 87 90 90
32 29 26 29 26 26 26 23 26 26 35 32 26 32 32 26 26 29 29 26 26 32 32 35 35 35 26 32 32 26 23 13 10 13 19 55 77 74 87 87 84 74 71
29 29 26 26 26 26 23 23 23 26 26 26 23 19 23 19 23 19 19 13 16 23 23 23 16 13 13 16 16 16 16 13 13 6 13 16 48 77 71 77 74 71 71
16 19 23 26 23 19 23 23 23 23 23 19 16 16 23 19 19 10 16 16 13 10 10 6 10 3 3 3 10 6 10 6 13 6 13 16 19 16 48 65 65 65 65
23 16 16 16 16 13 19 19 23 23 23 23 19 19 16 19 10 13 13 10 6 6 3 6 0 0 0 0 0 3 3 6 10 10 10 6 6 6 3 26 58 58 55
19 19 19 13 19 16 16 19 23 23 23 19 10 13 13 10 10 13 6 6 3 3 3 3 3 0 0 0 3 3 0 0 0 3 3 3 3 3 3 3 16 29 45
19 16 16 13 13 13 13 16 13 13 6 0 6 13 6 13 10 10 6 6 3 3 3 3 3 0 0 0 0 0 0 0 0 0 0 0 0 3 3 3 3 3 10
16 13 13 10 10 6 13 16 10 3 0 0 0 0 0 3 6 10 3 3 3 3 3 3 0 0 0 0 0 0 0 0 0 0 0 0 0 0 0 0 0 0 0
16 13 13 10 10 10 6 16 10 0 0 0 0 0 0 0 0 0 3 3 0 3 0 0 0 0 0 0 0 0 0 0 0 0 0 0 0 0 0 0 0 0 0
16 16 13 10 10 10 6 3 6 0 0 0 0 0 0 0 0 0 0 0 0 0 0 0 0 0 0 0 0 0 0 0 0 0 0 0 0 0 0 0 0 0 0
13 10 10 10 3 3 0 0 0 0 0 0 0 0 0 0 0 0 0 0 0 3 0 0 0 0 0 0 0 0 0 0 0 0 0 0 0 0 0 0 0 0 0
10 6 6 6 3 0 0 0 0 0 0 0 0 0 0 0 0 0 0 0 0 0 0 0 0 0 0 0 0 0 0 0 0 0 0 0 0 0 0 0 0 0 0

GEFSSE_con_cape1000_138.txt.gz
Probability
71 84 90 90 94 97 100 100 100 100 100 100 100 100 100 100 100 100 100 100 100 100 100 100 100 100 100 100 100 100 100 100 100 100 100 100 97 97 94 94 90 87 97
81 87 100 97 97 97 100 100 100 100 100 100 100 100 100 100 100 100 100 100 100 100 100 100 100 100 100 100 100 100 100 100 100 100 100 97 97 94 94 90 94 94 97
87 87 94 100 100 100 100 100 100 100 100 100 100 100 100 100 100 100 100 100 100 100 100 100 100 100 100 100 100 100 100 100 100 100 100 90 87 87 87 87 94 90 90
87 84 84 100 100 100 97 100 100 100 100 100 100 100 100 100 100 100 100 100 100 100 100 100 97 97 100 100 100 97 97 100 100 100 90 94 90 94 97 94 87 84 87
84 81 97 100 100 100 100 100 100 100 100 100 100 100 100 100 100 100 100 100 100 100 100 100 94 97 100 100 100 100 100 100 100 87 81 87 90 97 100 97 87 90 81
84 77 90 100 100 100 100 100 100 100 100 100 100 100 100 100 100 100 100 100 100 100 97 100 97 97 97 100 100 100 97 97 90 77 81 77 90 100 97 90 71 90 87
81 81 90 100 100 100 100 100 100 100 100 100 100 100 100 100 100 100 100 100 100 100 100 100 100 100 100 100 100 100 100 84 65 65 77 81 94 100 100 84 84 84 87
81 81 87 94 94 97 100 100 100 100 100 100 100 100 100 100 100 100 100 100 100 100 100 100 100 100 100 100 100 94 94 87 65 58 71 77 87 100 94 97 97 94 84
81 81 84 90 90 90 97 100 100 100 100 100 97 100 100 100 100 100 100 100 100 100 100 100 97 97 94 90 90 94 90 94 52 65 65 68 81 97 97 100 97 97 94
81 84 84 87 90 90 90 94 97 100 100 100 97 97 97 97 97 100 100 100 100 97 97 97 97 87 87 87 90 94 94 81 39 42 68 65 90 97 97 100 97 97 94
77 71 77 81 87 90 90 90 90 90 97 100 97 97 94 84 87 97 100 100 97 97 94 94 90 90 94 94 90 97 81 55 23 42 42 55 84 97 90 100 100 94 90
65 68 68 71 77 77 81 81 81 84 84 84 77 81 71 68 68 84 97 97 94 94 94 94 94 84 87 74 55 71 61 45 39 32 23 68 97 100 97 97 97 90 81
61 61 61 61 68 68 68 71 65 61 68 65 61 65 61 52 55 61 65 71 74 81 84 81 77 81 74 61 58 45 39 32 45 35 32 81 97 97 94 90 97 90 90
48 52 55 52 52 52 58 58 52 48 52 52 48 48 48 39 35 39 42 52 52 55 58 61 58 61 55 52 48 42 35 39 42 39 32 81 90 90 90 90 90 84 87
42 42 42 42 35 42 35 35 35 39 48 45 45 45 42 35 29 29 29 29 39 39 39 39 32 29 29 35 35 39 32 35 35 35 23 61 87 87 84 94 90 81 81
45 39 39 29 29 29 23 23 23 19 19 19 29 32 32 32 29 23 23 26 26 26 29 29 29 29 26 26 26 26 29 32 29 32 29 32 65 84 87 90 87 77 77
23 32 32 23 23 19 19 19 23 23 19 19 13 10 13 13 19 13 13 19 19 23 19 19 16 16 16 13 16 26 32 29 32 29 26 23 32 61 71 74 68 74 68
19 19 19 23 23 19 19 19 19 16 19 19 10 10 10 13 13 10 6 3 6 3 0 0 3 6 3 6 3 3 6 16 19 13 19 16 19 29 48 52 55 58 61
10 16 13 16 19 16 19 16 16 16 13 13 6 6 3 13 6 3 6 3 0 3 0 0 0 0 0 0 0 0 0 0 3 10 10 10 13 16 23 26 42 48 52
3 6 10 10 10 10 10 10 10 10 6 3 3 3 3 6 10 3 6 6 0 0 3 0 0 0 0 0 0 0 0 0 0 0 3 3 10 10 10 10 19 26 35
6 6 10 10 10 10 10 10 10 13 0 0 0 0 0 0 3 6 3 3 3 3 3 0 0 0 0 0 0 0 0 0 0 0 0 3 3 10 6 6 10 10 13
6 6 6 6 6 10 10 3 0 0 0 0 0 0 0 0 0 0 0 0 0 0 0 0 0 0 0 0 0 0 0 0 0 0 0 0 3 3 3 0 3 6 6
3 3 10 3 3 3 3 3 0 0 0 0 0 0 0 0 0 0 0 0 0 0 0 0 0 0 0 0 0 0 0 0 0 0 0 0 0 0 3 3 3 3 3
0 0 0 0 3 0 0 3 0 0 0 0 0 0 0 0 0 0 0 0 0 0 0 0 0 0 0 0 0 0 0 0 0 0 0 0 0 3 3 0 3 3 3
0 0 0 0 0 0 0 0 0 0 0 0 0 0 0 0 0 0 0 0 0 0 0 0 0 0 0 0 0 0 0 0 0 0 0 0 0 0 0 3 3 3 3
0 0 0 0 0 0 0 0 0 0 0 0 0 0 0 0 0 0 0 0 0 0 0 0 0 0 0 0 0 0 0 0 0 0 0 0 0 0 0 0 0 0 0

GEFSSE_con_cape1000_144.txt.gz
Probability
39 52 87 94 97 100 100 100 100 100 100 100 100 100 100 100 100 100 100 100 100 100 94 97 97 100 100 100 100 97 100 100 100 100 100 97 97 100 90 90 90 94 100
39 58 87 94 100 100 100 100 100 100 100 100 100 100 100 100 100 100 100 100 100 100 94 100 100 100 100 97 97 97 100 100 100 97 94 94 94 94 90 81 90 100 97
58 68 71 94 100 100 100 100 100 100 100 100 100 100 100 100 100 100 100 100 100 100 100 100 100 100 100 100 100 100 100 100 97 97 87 71 71 87 90 84 90 94 97
55 65 68 97 97 100 100 100 100 100 100 100 100 100 100 100 100 100 100 100 100 100 100 97 97 100 100 100 97 97 97 97 94 97 71 42 52 84 87 77 87 87 87
45 58 94 97 100 100 100 100 100 100 100 100 100 100 100 100 100 100 100 100 100 97 94 97 97 97 100 100 97 97 97 94 94 90 48 42 68 90 87 84 74 84 81
45 48 90 97 97 100 100 100 100 100 100 100 100 100 100 100 100 100 100 100 100 97 94 94 97 97 100 100 100 97 94 97 90 55 42 52 77 97 94 74 77 74 74
42 55 87 97 97 97 97 97 97 97 100 100 100 100 100 100 100 100 100 100 100 97 97 97 97 97 100 100 100 97 97 87 87 58 58 58 71 97 81 65 68 65 77
48 48 90 97 97 97 97 97 97 97 97 97 100 100 100 100 100 100 100 100 100 97 97 97 97 97 97 94 94 97 90 90 77 58 61 58 94 97 90 84 74 74 77
55 58 68 77 97 97 97 97 97 97 97 97 97 97 97 97 97 97 100 100 100 100 97 97 94 94 94 90 84 87 90 90 81 74 68 77 100 94 94 87 90 94 87
58 55 61 58 74 87 97 94 97 97 100 97 97 97 97 97 97 97 97 100 100 97 90 94 94 94 87 84 81 84 84 77 61 52 61 90 100 90 97 97 94 94 94
65 68 65 61 68 65 65 87 94 94 100 100 100 97 97 87 84 94 90 97 94 97 94 97 97 94 90 90 84 87 74 68 48 58 68 87 87 94 94 97 90 90 84
71 68 68 65 68 61 65 94 90 90 90 90 94 94 94 90 90 68 87 94 94 94 87 94 94 94 81 77 77 71 65 58 48 58 71 94 94 97 94 94 94 87 84
68 71 65 68 74 71 84 87 84 87 87 84 87 90 87 87 81 68 77 84 94 87 87 90 87 77 58 55 58 48 45 45 58 48 65 90 94 97 90 87 94 94 87
68 74 68 65 74 71 81 77 84 84 81 74 81 81 87 87 81 81 84 68 77 77 87 84 87 65 68 61 55 42 42 55 58 65 87 84 94 90 87 84 87 87 81
71 71 65 71 74 77 77 81 77 77 71 74 74 71 68 77 84 81 84 84 71 74 77 87 90 81 74 65 55 42 45 52 55 58 74 81 87 87 84 84 84 84 74
65 71 68 65 71 71 77 77 74 68 68 65 65 61 61 71 71 74 77 81 77 77 81 81 81 81 71 68 55 58 55 42 52 68 65 71 84 84 81 77 74 71 61
65 65 68 61 61 68 61 58 55 55 52 52 58 52 58 58 61 61 68 71 71 68 71 74 71 71 71 61 58 61 65 55 48 61 61 71 65 74 71 65 65 61 58
65 58 52 48 55 55 48 52 45 35 39 39 39 39 42 39 39 48 52 52 55 48 58 58 61 61 65 55 45 45 45 55 42 52 52 58 68 55 48 48 48 55 55
65 61 55 52 52 42 39 48 39 35 39 39 35 32 32 35 35 39 42 48 42 42 39 35 39 45 39 32 29 35 32 39 45 35 42 48 52 58 48 48 45 48 48
55 52 39 42 42 42 42 45 39 39 39 39 35 35 32 35 35 35 35 32 35 39 35 39 35 39 39 35 13 13 19 26 32 35 39 35 35 35 45 39 35 42 42
52 45 42 42 39 39 39 35 35 32 35 35 26 26 26 26 26 32 19 29 23 16 29 19 23 19 19 26 16 13 16 19 23 26 29 35 19 23 32 35 39 35 42
45 42 39 35 39 35 29 32 35 35 29 26 23 26 23 19 23 13 16 19 19 23 19 23 23 29 10 10 16 16 16 13 29 6 23 23 16 23 26 19 29 32 32
45 39 35 39 35 29 26 26 23 29 23 19 23 26 19 16 10 6 10 13 13 10 13 16 23 19 16 13 10 13 10 10 13 6 0 0 6 16 13 16 16 23 26
39 39 39 35 39 32 35 26 29 32 19 23 19 19 13 13 10 10 10 10 6 6 10 3 3 19 13 19 16 19 16 19 13 10 10 6 10 6 10 6 10 13 23
32 39 39 35 29 32 32 29 29 23 19 16 23 16 16 10 10 6 6 6 6 6 3 0 3 3 3 13 13 13 16 13 3 6 6 3 3 3 6 6 6 6 13
26 32 26 23 23 23 23 19 23 23 26 23 16 16 10 10 6 0 0 6 0 0 0 0 0 0 3 3 6 10 10 10 10 6 6 6 6 3 6 6 10 6 13

GEFSSE_con_cape1000_150.txt.gz
Probability
52 58 100 100 100 100 100 100 100 100 100 100 100 100 100 100 100 100 100 100 94 87 87 90 81 81 87 87 87 87 94 100 97 97 100 97 94 90 97 87 90 97 100
58 77 100 100 100 100 97 97 97 100 100 100 100 100 100 100 100 100 100 100 97 90 90 90 87 90 94 94 90 94 84 87 87 84 94 90 94 90 94 94 100 97 100
71 77 97 100 100 100 100 97 97 97 100 100 100 100 100 100 100 100 100 97 100 94 94 94 97 97 100 100 100 84 77 90 90 84 90 87 81 87 87 94 97 97 97
58 65 84 100 100 100 100 100 97 97 100 100 100 100 100 100 100 100 100 97 94 90 90 94 90 97 97 97 94 77 87 87 90 90 87 84 68 81 84 84 90 97 87
55 68 94 97 97 97 100 97 100 100 100 100 100 97 97 97 100 100 97 100 97 94 94 94 97 94 97 94 87 90 84 90 97 97 94 84 77 87 87 74 77 84 81
55 84 94 94 97 97 97 97 97 97 97 100 97 97 94 100 100 97 100 97 97 94 94 94 94 90 90 84 84 87 94 97 100 90 87 90 81 97 90 58 58 77 81
61 74 84 94 94 94 97 97 97 97 97 97 97 100 94 97 94 97 97 94 90 84 81 87 87 90 87 87 87 87 94 100 97 84 81 84 90 100 90 68 65 68 65
52 65 84 94 94 94 94 94 97 97 97 97 97 97 97 97 94 90 97 94 94 90 84 84 84 87 90 87 84 87 94 94 84 74 81 84 100 100 87 81 68 61 55
52 61 71 84 90 94 94 94 94 94 97 94 97 97 97 97 94 90 90 90 90 90 87 81 84 84 77 81 87 90 94 97 90 74 87 81 97 97 97 87 81 71 65
45 39 52 68 87 94 94 94 94 94 97 97 97 97 97 97 90 90 97 97 94 84 84 84 84 87 87 97 97 97 97 94 71 48 71 81 97 97 94 90 84 71 84
58 48 48 55 71 71 94 94 94 94 97 97 97 97 97 90 90 94 90 97 87 87 81 87 87 94 97 97 97 97 97 61 42 45 77 90 97 97 94 94 87 84 84
61 55 55 52 52 48 52 81 100 87 100 90 94 94 94 94 87 81 87 94 87 90 94 97 97 97 94 81 94 97 84 52 32 52 71 100 100 100 97 94 94 87 87
61 52 52 58 58 65 77 68 84 81 90 94 84 94 90 94 97 97 90 90 90 87 87 87 87 84 81 65 74 84 74 42 45 42 81 94 97 97 90 94 94 94 90
68 58 61 68 68 74 77 68 84 74 84 81 90 94 94 100 100 97 94 90 87 87 84 84 84 84 74 68 68 68 65 65 61 68 77 94 97 97 90 90 87 94 90
71 68 77 77 77 90 97 87 77 84 90 84 90 90 94 87 90 90 97 90 81 84 81 74 77 68 74 71 68 61 65 58 48 65 74 84 87 87 94 90 94 87 87
77 77 77 77 77 87 94 84 81 81 87 81 81 77 71 87 87 84 90 87 81 84 77 81 74 71 74 71 71 65 61 48 58 55 58 77 81 81 81 81 84 74 74
74 77 77 81 77 84 81 71 61 65 68 65 61 58 58 65 71 71 71 81 77 74 77 77 68 71 71 61 65 61 55 55 52 58 58 61 61 71 77 74 77 77 71
77 74 71 58 71 71 74 68 61 61 58 61 61 61 55 45 45 55 55 58 71 68 71 68 58 61 55 55 55 48 42 45 39 42 48 42 45 48 58 58 61 61 55
74 77 68 68 65 68 65 65 58 58 61 65 65 61 52 45 48 48 45 55 52 58 65 42 45 45 48 42 29 32 23 32 39 32 42 42 45 52 42 45 61 55 48
71 71 71 71 68 61 65 68 65 58 55 55 58 48 42 39 32 32 39 42 39 45 52 48 42 45 42 29 10 10 23 26 26 29 32 32 45 45 45 45 45 45 45
71 71 71 71 68 65 65 61 61 61 58 52 55 42 39 29 35 35 35 32 42 39 35 32 32 29 32 29 26 16 16 16 29 29 32 26 23 29 39 42 39 35 35
74 71 68 65 61 58 61 58 55 52 45 48 39 35 39 29 32 13 29 32 35 42 42 35 32 29 19 23 13 6 6 13 19 6 26 26 19 26 29 32 32 32 32
65 61 55 61 58 55 55 52 39 52 48 39 39 39 26 23 19 16 19 19 19 19 23 26 23 23 13 13 6 10 6 3 10 10 13 10 16 26 23 23 23 29 29
55 58 52 55 61 58 55 42 32 29 32 35 35 29 26 23 19 13 16 13 16 16 13 10 13 10 6 10 6 10 10 6 3 6 6 0 3 10 16 10 6 6 19
39 39 45 52 52 52 52 45 39 35 23 26 26 26 23 23 16 13 10 10 13 10 6 6 10 6 6 6 3 3 3 6 6 6 3 0 0 3 6 10 6 3 3
35 35 35 42 42 42 42 35 39 35 26 23 23 19 23 23 19 16 10 10 10 6 10 6 6 3 0 0 0 3 3 3 6 6 3 3 3 0 0 3 0 0 0

GEFSSE_con_cape1000_156.txt.gz
Probability
39 84 97 100 100 100 97 100 100 100 100 100 100 100 100 100 100 100 100 97 97 100 97 90 81 94 90 90 94 97 100 100 100 100 100 100 100 100 100 100 97 90 100
61 94 97 100 100 100 97 100 100 100 100 100 100 100 100 100 100 100 100 100 97 90 84 77 84 90 87 87 87 84 97 97 94 94 90 90 94 100 100 100 94 94 94
68 94 97 100 100 100 97 97 100 100 100 100 100 100 100 100 100 100 100 100 100 84 84 84 84 87 87 84 84 84 87 94 90 90 90 81 90 94 97 97 97 100 94
71 87 90 100 100 100 100 100 97 100 100 100 100 100 100 100 100 100 94 94 90 84 81 81 87 90 90 87 84 90 87 94 90 87 68 68 81 90 97 97 100 97 97
65 87 94 97 97 97 97 100 100 100 100 100 100 100 100 100 100 100 94 90 84 81 81 77 74 81 87 84 90 87 90 94 94 77 58 61 55 94 94 97 97 90 94
65 84 97 97 97 97 97 97 97 100 100 100 100 100 100 100 100 97 87 77 77 81 77 84 81 87 94 97 94 97 97 97 90 55 52 45 45 94 94 90 90 90 97
71 87 97 97 97 97 97 97 97 97 100 100 100 100 100 100 100 100 87 81 71 68 71 68 81 84 87 97 100 97 94 100 77 48 35 29 48 90 94 97 94 94 94
74 87 94 94 97 97 97 97 97 100 100 100 100 100 100 100 97 97 94 90 81 71 71 71 74 77 90 90 94 100 97 94 77 58 39 29 58 94 97 97 100 97 94
71 77 81 90 97 97 97 97 97 100 100 97 97 100 100 97 94 87 90 87 87 87 81 77 77 77 90 90 90 100 100 90 68 48 42 32 74 90 90 94 97 90 87
65 71 74 74 81 94 97 97 97 100 100 100 97 94 94 97 90 87 87 90 87 87 81 81 81 84 90 94 100 100 97 87 58 39 26 39 87 87 90 97 97 94 94
58 58 71 71 71 77 81 94 94 94 100 97 94 94 94 81 65 81 87 97 97 94 90 84 84 90 87 94 97 97 90 68 42 39 23 55 90 87 87 84 87 94 94
39 42 48 65 65 65 77 87 84 90 90 84 71 71 68 52 42 65 81 94 94 94 97 97 94 90 87 68 61 87 61 45 32 29 23 77 87 90 81 84 90 90 94
32 32 29 35 42 45 48 61 61 61 61 61 55 55 42 39 35 52 52 68 71 74 61 68 74 65 58 45 35 35 32 32 29 19 23 77 81 84 84 87 90 87 94
29 23 13 19 19 29 35 52 42 35 39 52 48 45 39 35 23 23 23 32 32 39 26 23 26 35 32 29 23 23 16 19 19 16 10 77 81 81 84 87 87 90 90
32 32 26 19 19 23 16 26 39 26 32 26 29 32 26 19 16 16 19 13 19 13 13 10 13 19 23 19 23 13 10 13 16 6 3 45 71 84 81 84 81 81 87
45 39 39 32 26 26 26 23 23 19 19 19 19 19 16 16 16 16 19 16 13 13 6 3 10 10 6 6 10 6 6 3 3 0 3 16 58 68 74 81 84 84 81
48 52 52 45 32 23 26 19 16 16 13 13 13 13 13 16 13 13 13 6 6 6 6 6 6 6 6 6 6 3 3 3 6 0 0 6 16 39 61 77 87 77 77
32 35 42 48 35 39 23 19 16 13 10 10 10 13 13 19 19 16 10 3 3 3 6 6 6 6 3 0 0 0 0 0 0 0 0 0 3 10 42 65 65 61 58
35 32 35 32 35 26 23 16 13 13 10 10 10 13 16 16 23 10 10 10 10 10 6 6 3 0 0 0 0 0 0 0 0 0 0 0 0 0 3 16 48 48 48
35 29 26 29 26 16 16 13 13 6 6 10 10 10 13 13 13 10 3 10 13 10 3 3 3 0 0 0 0 0 0 0 0 0 0 0 0 0 0 3 0 13 42
29 29 29 26 26 19 13 13 13 6 6 6 13 13 13 13 6 6 6 6 6 6 0 0 0 0 0 0 0 0 0 0 0 0 0 0 0 0 0 0 0 0 0
32 29 23 19 29 16 13 16 16 10 13 10 10 10 10 6 6 6 6 6 6 6 0 0 0 0 0 0 0 0 0 0 0 0 0 0 0 0 0 0 0 0 0
23 26 29 19 23 13 10 16 13 10 10 6 3 0 3 3 3 3 3 3 3 3 0 0 0 0 0 0 0 0 0 0 0 0 0 0 0 0 0 0 0 0 0
26 26 23 23 19 16 6 10 6 6 3 6 3 0 0 0 3 3 3 3 3 0 0 0 0 0 0 0 0 0 0 0 0 0 0 0 0 0 0 0 0 0 0
16 26 23 23 19 19 16 10 6 3 3 3 3 3 0 0 0 0 3 3 0 0 0 0 0 0 0 0 0 0 0 0 0 0 0 0 0 0 0 0 0 0 0
16 16 19 16 10 13 10 3 6 3 0 3 3 3 0 0 0 0 0 0 0 0 0 0 0 0 0 0 0 0 0 0 0 0 0 0 0 0 0 0 0 0 0

GEFSSE_con_cape1000_162.txt.gz
Probability
26 74 100 97 97 97 100 97 97 97 100 100 100 100 100 100 97 97 100 100 97 90 87 81 84 90 87 84 90 94 94 94 97 97 97 97 97 97 97 94 90 87 94
35 81 100 97 100 97 97 97 100 100 100 100 100 100 100 100 100 100 97 90 90 90 84 77 77 77 81 81 84 87 87 90 94 94 94 94 94 94 94 97 90 87 94
55 90 97 97 100 100 100 100 100 100 100 100 100 100 100 100 100 100 94 87 87 87 74 74 84 77 74 84 87 81 87 87 87 84 87 84 90 94 94 90 90 97 90
74 87 94 94 97 97 100 100 100 100 100 100 100 100 100 100 97 94 90 87 87 87 77 74 81 81 77 77 81 84 77 81 90 84 77 77 84 90 90 94 94 97 90
87 87 94 94 97 97 97 97 97 100 100 100 100 100 100 100 97 90 84 81 84 81 77 71 71 77 84 77 74 77 81 87 90 68 61 68 74 87 87 87 94 90 90
81 84 94 97 100 97 97 97 97 97 100 100 100 100 97 94 97 94 77 77 77 77 71 65 65 74 84 81 84 84 87 84 74 48 52 55 58 87 90 87 87 84 87
68 81 94 97 97 97 97 97 97 97 100 100 100 100 97 97 94 90 77 71 65 68 61 68 61 71 77 81 84 87 90 87 71 52 55 55 55 74 87 90 90 94 97
74 87 94 97 97 97 97 97 97 100 100 100 97 97 94 97 97 90 84 77 74 68 68 68 65 68 71 81 94 84 87 81 74 65 61 48 58 81 87 94 97 100 97
84 87 90 90 90 94 97 97 100 100 100 100 100 97 97 97 94 90 81 84 81 71 68 61 58 71 81 90 90 94 90 87 71 65 39 45 58 84 90 94 94 94 94
81 84 87 87 90 90 94 97 97 100 100 97 94 94 90 90 87 87 90 94 87 84 84 81 77 81 84 90 94 90 97 84 65 55 42 45 68 90 94 94 94 94 94
68 68 68 65 68 77 87 94 94 94 94 90 87 90 84 74 71 74 84 90 90 90 84 87 81 77 90 90 97 100 84 58 48 45 42 45 81 87 94 90 90 90 94
48 61 68 65 61 65 81 84 84 84 84 84 68 65 61 39 42 55 65 81 87 84 81 74 74 71 68 71 65 71 58 45 39 35 39 68 87 94 90 90 94 94 90
52 55 61 61 58 61 58 61 55 61 65 61 58 52 32 29 32 42 45 52 45 65 55 58 58 52 55 45 42 39 32 32 29 29 29 74 87 90 81 87 94 90 84
45 52 52 52 55 45 48 45 48 48 42 35 35 32 26 26 29 19 23 26 32 32 29 26 29 39 39 35 29 19 19 29 19 23 29 65 81 81 77 74 81 77 81
35 35 42 32 39 35 32 29 45 29 29 29 29 26 32 29 29 10 6 10 6 16 16 16 19 19 23 19 16 13 13 16 13 16 13 42 65 81 74 74 74 81 77
26 23 19 16 23 26 26 23 23 19 23 23 23 19 26 19 10 6 6 3 3 6 13 16 16 13 10 10 10 13 10 10 10 3 10 13 35 61 77 68 71 71 77
16 16 16 16 16 13 10 16 13 16 16 13 13 10 13 16 13 6 6 6 3 3 0 0 0 3 3 3 6 6 6 6 6 3 3 3 0 13 32 55 65 61 71
16 13 16 26 16 16 10 10 16 10 6 10 10 10 10 10 10 6 6 6 3 0 0 0 0 0 0 0 0 0 0 3 3 3 3 0 0 3 6 26 39 45 58
13 13 13 13 16 19 13 6 10 10 10 10 10 10 10 6 6 6 6 6 0 0 0 3 0 0 0 0 0 0 0 0 0 0 3 0 0 0 0 6 23 35 35
13 13 13 13 13 13 6 6 6 10 6 10 10 10 6 6 6 6 6 3 0 0 0 0 0 0 0 0 0 0 0 0 0 0 3 3 0 0 0 0 0 10 23
16 19 16 16 13 13 6 6 6 6 6 10 6 6 6 6 6 6 6 6 3 0 3 0 0 0 0 0 0 0 0 0 0 0 0 0 0 0 0 0 0 0 0
19 19 19 19 16 6 6 3 3 3 0 3 3 0 3 6 6 6 6 3 0 0 0 0 0 0 0 0 0 0 0 0 0 0 0 0 0 0 0 0 0 0 0
23 19 19 19 13 3 3 3 0 0 0 0 0 0 0 0 6 6 3 0 0 0 0 0 0 0 0 0 0 0 0 0 0 0 0 0 0 0 0 0 0 0 0
19 19 16 16 10 3 3 0 0 0 0 0 0 0 0 0 0 3 0 0 0 0 0 0 0 0 0 0 0 0 0 0 0 0 0 0 0 0 0 0 0 0 0
13 16 16 13 3 0 0 0 0 0 0 0 0 0 0 0 0 0 0 0 0 0 0 0 0 0 0 0 0 0 0 0 0 0 0 0 0 0 0 0 0 0 0
10 10 10 6 3 6 0 0 0 0 0 0 0 0 0 0 0 0 0 0 0 0 0 0 0 0 0 0 0 0 0 0 0 0 0 0 0 0 0 0 0 0 0

GEFSSE_con_cape1000_168.txt.gz
Probability
19 61 87 90 90 90 90 94 100 100 100 100 100 100 100 100 100 100 100 90 90 87 77 77 77 77 77 84 81 84 87 87 87 84 94 94 94 94 94 87 87 90 90
23 61 87 94 97 94 90 97 94 97 97 97 97 97 100 100 100 100 97 90 90 84 77 77 74 77 74 77 77 90 90 87 90 84 94 90 90 87 87 81 87 94 84
42 74 74 94 97 94 94 100 100 100 94 94 97 97 97 100 100 97 94 90 87 81 81 84 77 74 74 71 77 81 84 87 87 81 87 90 90 81 74 81 81 90 87
45 77 65 90 94 94 94 97 97 100 100 100 97 97 100 100 97 90 87 90 87 77 71 74 81 74 74 71 65 81 81 84 84 84 71 45 61 81 77 71 81 87 90
48 77 94 94 94 97 97 97 97 97 97 97 97 100 97 94 94 90 87 84 77 74 71 77 71 74 65 65 65 68 77 84 87 84 52 48 65 87 74 81 81 87 90
52 61 90 94 97 97 97 97 97 97 100 97 94 97 90 87 84 84 77 81 68 65 71 68 71 61 74 74 71 65 71 81 90 68 61 39 45 81 77 77 77 84 90
48 58 90 97 97 97 97 97 97 97 97 90 90 94 87 84 81 74 71 65 68 61 58 52 68 71 65 71 68 71 74 71 84 61 61 65 55 81 74 74 77 84 84
58 65 94 97 94 97 97 97 97 100 100 97 94 90 84 84 77 71 68 65 68 71 61 55 58 65 65 65 65 71 84 84 55 45 65 68 77 84 84 81 84 84 81
61 68 87 84 94 97 94 94 97 100 100 97 97 90 90 77 74 74 71 71 71 74 68 68 65 68 68 71 68 71 74 74 68 68 52 77 84 84 87 87 87 87 84
71 81 87 90 87 87 87 94 97 97 97 90 90 90 77 74 77 77 71 74 77 74 74 71 65 68 81 84 77 77 74 77 55 45 55 81 81 77 94 94 87 87 87
90 84 81 81 84 81 77 87 87 94 87 90 84 84 77 65 52 81 52 74 74 74 74 74 74 71 71 77 77 81 84 48 32 39 45 71 74 81 94 90 87 87 87
84 84 84 77 84 77 71 84 84 77 77 71 77 71 74 84 68 45 55 61 61 71 77 71 68 71 61 68 77 71 48 39 26 32 55 84 71 74 84 87 87 87 84
74 74 74 77 90 87 77 81 74 77 84 77 71 77 81 77 71 58 68 65 71 65 71 65 61 61 61 65 55 58 42 32 32 32 39 68 68 74 81 84 87 90 87
71 68 65 74 84 77 81 74 74 74 74 68 74 81 71 77 68 65 74 65 61 68 71 68 65 48 55 52 45 39 32 35 32 39 48 65 65 65 71 71 77 77 87
61 71 68 74 74 81 84 87 71 74 68 71 74 71 71 71 65 58 61 61 55 52 55 52 45 45 42 42 32 35 48 42 39 32 39 52 55 48 58 61 65 74 71
61 68 71 74 81 81 81 81 74 74 77 74 77 74 68 61 61 61 65 61 55 42 45 29 26 42 42 39 29 29 35 48 45 45 32 42 48 45 45 45 61 61 58
58 61 65 65 65 68 71 71 68 61 68 68 71 65 61 55 55 58 52 45 35 32 35 29 23 32 35 32 26 29 32 26 29 32 35 42 35 32 35 45 45 45 45
61 61 61 55 58 58 61 61 52 58 65 58 55 58 55 55 55 55 42 32 35 29 35 29 26 23 23 16 23 19 19 29 29 26 29 39 29 32 32 35 35 42 39
55 55 52 52 58 61 58 65 61 58 58 52 52 52 52 52 48 42 39 39 39 32 32 16 16 23 19 19 13 16 19 19 32 23 19 29 32 32 32 19 19 29 35
45 45 52 55 55 52 58 58 61 61 52 48 52 52 52 48 42 39 42 39 32 29 29 23 23 23 19 19 6 6 10 19 23 19 13 13 26 23 19 16 26 26 19
45 45 48 45 52 52 52 55 61 58 55 35 39 39 39 35 32 42 32 35 32 26 26 19 23 16 19 16 19 13 6 6 3 6 10 13 10 10 10 19 16 19 23
48 48 52 48 45 48 55 55 55 48 39 29 32 35 32 29 35 26 29 29 26 32 29 19 23 16 16 16 10 6 0 6 6 0 3 0 3 6 10 6 6 16 16
52 48 48 52 48 48 48 52 39 39 29 29 32 35 29 29 35 32 26 19 23 26 26 23 19 19 13 16 13 10 6 0 0 3 0 0 3 3 10 13 3 3 6
48 48 48 48 42 39 42 32 35 39 29 29 26 26 26 26 23 19 26 19 19 16 23 13 13 13 16 13 10 3 0 0 0 0 3 0 3 3 3 0 0 3 6
42 42 45 42 39 42 42 35 35 35 26 23 19 26 26 26 23 16 19 19 19 23 19 10 10 10 10 6 3 0 0 0 0 0 0 3 0 3 0 3 3 0 0
42 39 35 39 35 35 39 39 35 29 26 19 19 19 23 26 19 16 10 13 13 13 16 16 13 10 10 6 6 6 3 0 0 0 0 0 0 0 0 0 0 0 0

GEFSSE_con_cape1000_174.txt.gz
Probability
42 55 90 87 94 94 90 97 97 97 94 94 97 97 90 94 94 94 84 81 77 74 65 77 74 68 65 65 77 74 71 74 77 71 71 77 81 84 81 77 84 94 94
52 58 90 87 94 90 94 94 97 97 97 97 97 97 94 94 90 87 77 77 68 68 61 71 71 74 74 71 74 74 61 65 71 71 74 74 87 77 74 74 87 97 90
52 65 84 87 90 90 87 94 94 94 97 97 97 97 100 100 90 81 81 74 68 65 65 65 61 65 68 74 74 74 65 58 65 77 84 74 84 74 68 74 81 87 81
55 55 71 94 90 90 90 90 90 94 94 94 94 97 94 90 84 84 84 77 74 65 58 55 58 55 61 58 58 71 68 65 74 87 74 74 58 74 65 71 84 77 74
48 58 87 94 90 90 90 87 87 87 87 87 87 87 84 74 77 77 74 71 61 61 61 58 52 45 48 55 58 61 58 68 81 84 74 68 68 81 71 68 77 81 74
55 68 87 94 94 90 87 84 87 84 84 84 84 81 74 74 77 74 65 65 61 55 55 52 52 45 45 48 55 58 61 71 77 68 71 74 71 84 81 74 71 74 87
55 68 84 94 94 97 87 87 87 87 84 84 84 74 74 71 65 65 61 65 58 58 55 55 55 58 55 48 48 65 74 77 68 58 65 61 71 90 84 77 74 68 74
61 74 87 94 94 94 94 94 94 87 84 84 84 77 71 68 68 61 61 58 55 55 55 55 45 45 58 61 61 55 68 71 55 48 52 68 87 94 87 84 81 77 74
65 71 77 84 90 94 94 90 87 84 81 81 77 74 71 68 61 65 65 65 61 58 55 55 55 48 48 68 68 71 71 81 65 48 48 65 87 90 90 90 90 84 81
65 77 81 77 87 94 94 87 84 81 77 77 77 74 71 68 74 71 74 71 65 61 68 65 65 58 65 71 77 71 65 68 48 26 29 65 81 87 87 94 87 84 84
81 87 90 87 87 87 84 81 81 81 77 74 77 81 74 74 74 74 65 77 71 68 71 71 68 71 77 77 81 77 68 52 16 19 26 71 84 81 77 84 90 87 81
74 81 84 84 87 81 77 84 84 71 74 71 77 81 74 71 74 58 77 81 71 71 74 74 74 77 68 61 71 77 42 32 19 13 23 74 77 71 81 81 81 84 81
71 74 68 74 81 84 77 68 74 71 71 61 74 77 77 81 81 68 71 71 71 65 68 68 65 58 48 39 35 35 26 13 23 16 39 68 65 65 58 61 71 81 84
65 68 71 77 77 81 84 77 71 58 77 71 77 68 77 81 74 65 68 71 71 68 61 61 58 52 48 32 29 23 26 32 23 32 55 61 65 61 61 61 61 58 74
61 68 68 71 81 77 84 74 61 74 61 65 74 81 77 74 68 58 65 58 58 55 48 45 42 42 35 29 23 23 29 29 26 26 48 65 58 55 55 58 61 58 58
71 68 71 74 74 77 74 74 74 65 71 71 74 68 68 61 61 68 65 61 48 45 42 39 32 35 26 26 26 23 26 19 26 29 26 39 48 45 48 48 52 55 58
74 71 74 74 81 74 68 68 65 61 55 58 61 68 61 61 61 58 61 52 52 48 42 39 32 29 26 26 26 26 26 26 23 29 23 35 29 39 45 52 52 52 52
68 68 65 61 65 71 71 71 61 65 65 65 58 58 58 55 55 55 55 52 48 45 35 32 35 26 23 19 29 29 23 29 26 29 23 35 35 23 32 39 45 45 45
71 71 68 61 65 61 61 61 61 68 68 58 55 55 55 58 55 52 52 48 45 42 35 16 23 29 19 16 13 19 23 23 23 19 23 23 26 26 19 19 35 45 39
68 65 65 58 58 55 58 58 58 58 55 48 48 48 52 48 42 39 42 39 35 29 35 29 23 26 16 16 10 10 16 23 26 19 16 19 23 23 16 10 13 23 26
58 58 58 55 58 58 52 52 58 58 48 45 42 45 45 45 45 35 32 29 29 29 29 23 13 16 13 13 10 10 10 16 13 16 19 16 16 6 6 10 10 16 10
58 52 58 61 55 52 52 48 58 52 48 42 42 42 39 42 45 23 29 29 29 32 29 19 23 19 16 13 10 3 3 6 13 0 6 3 3 3 3 3 3 6 10
55 55 52 55 55 52 52 45 45 45 48 42 39 39 29 26 23 26 26 29 29 29 23 23 23 19 19 16 13 6 3 3 10 6 0 0 0 0 0 0 3 6 3
55 55 52 55 52 52 52 45 45 42 32 39 39 32 29 29 23 23 23 19 23 29 29 19 10 16 10 6 10 10 6 6 6 0 3 0 3 0 0 0 0 0 6
45 45 48 48 48 45 45 48 48 48 45 42 39 35 29 29 23 23 23 19 19 23 26 13 16 13 10 6 3 6 10 6 10 3 0 0 0 0 3 0 0 0 0
45 42 45 48 45 45 45 45 45 45 45 42 39 32 26 29 23 23 19 19 23 23 19 13 16 13 10 10 10 10 6 6 3 6 3 0 0 0 0 0 0 0 0